Fort Davis, TX (79734)

7:04 PM CST on February 13, 2016 (GMT -0600)
3 Dog Ranch | | Change Station
CLOSE
Current Station
Personal Weather Station
Location: Fort Davis, TX
Elevation: 5274 ft
Nearby Weather Stations

Elev 5274 ft 30.61 °N, 103.97 °W | Updated 6 seconds ago

Clear
Clear
62.8 °F
Feels Like 62.8 °F
N
7.2
Wind Variable Wind from SW
Gusts 7.6 mph

Today
High -- | Low -- °F
--% Chance of Precip.
Yesterday
High -- | Low -- °F
Precip. -- in
Pressure 30.13 in
Visibility 10.0 miles
Clouds Clear
Dew Point 19 °F
Humidity 18%
Rainfall 0.00 in
Snow Depth Not available.
7:38 AM 6:41 PM
Waxing Crescent, 36% visible
METAR KMRF 140056Z AUTO 21005KT 10SM CLR 16/M09 A3016 RMK AO2 SLP201 T01561094
Pressure 30.13 in
Visibility 10.0 miles
Clouds Clear
Dew Point 19 °F
Humidity 18%
Rainfall 0.00 in
Snow Depth Not available.
7:38 AM 6:41 PM
Waxing Crescent, 36% visible
METAR KMRF 140056Z AUTO 21005KT 10SM CLR 16/M09 A3016 RMK AO2 SLP201 T01561094

10-Day Weather Forecast

Almanac

Astronomy

Feb. 13, 2016 Rise Set
Actual Time
Civil Twilight
Nautical Twilight
Astronomical Twilight
Moon
Length of Visible Light
Length of Day
Tomorrow will be .
, % of the Moon is Illuminated

Today's Extremes

State Highs State Lows

Community

WunderPhotos

Upload Photos

1,892,720 photos uploaded!

WunderBlog® & News

Nearby

Air Quality

  Air Quality AQ Index Pollutant
Not available.

Snow Depth

Station Depth Elevation

Earthquake Activity

City Distance Mag. Time & Date
Minimum magnitude displayed is 2.5.

Coastal Water Temperatures

Place Temperature

Stations

Nearby Weather Stations

Station Location Temp. Windchill Dew Point Humidity Wind Precip. Elev Updated Type
                   

Watches & Warnings

There are currently no watches in effect.